Weather History for Beckley, WV

Change the Weather History Date:

Monday, February 20, 2012

  Actual Average Record
Temperature  
Mean Temperature 29 °F 35 °F  
Max Temperature 38 °F 44 °F 69 °F (1916)
Min Temperature 20 °F 27 °F -1 °F (1934)
Degree Days  
Heating Degree Days 36 30  
Month to date heating degree days 590 629  
Since 1 July heating degree days 3208 3773  
Cooling Degree Days 0 0  
Month to date cooling degree days 0 0  
Year to date cooling degree days 0 0  
Moisture  
Dew Point 23 °F    
Average Humidity 76    
Maximum Humidity 92    
Minimum Humidity 59    
Precipitation  
Precipitation 0.00 in 0.10 in 1.04 in (1957)
Month to date precipitation 2.11 1.95  
Year to date precipitation 5.46 4.76  
Snow  
Snow 0.00 in - - ()
Month to date snowfall 10.4  
Since 1 September snowfall 29.2  
Snow Depth 7.00 in    
Sea Level Pressure  
Sea Level Pressure 30.20 in    
Wind  
Wind Speed 3 mph (NW)    
Max Wind Speed 9 mph    
Max Gust Speed 14 mph    
Visibility 10 miles    
Events      
T = Trace of Precipitation, MM = Missing Value Source: NWS Daily Summary

Daily Weather History Graph

Daily Weather History Graph

Search for Another Location

Airport:

Trip Planner

Search our weather history database for the weather conditions in past years. The results will help you decide how hot, cold, wet, or windy it might be!

Date:

Astronomy

Feb. 20, 2012 Rise Set
Actual Time 7:08 AM EST 6:08 PM EST
Civil Twilight 6:42 AM EST 6:35 PM EST
Nautical Twilight 6:11 AM EST 7:05 PM EST
Astronomical Twilight 5:41 AM EST 7:36 PM EST
Moon 6:04 AM EST (2/20) 5:11 PM EST (2/20)
Length of Visible Light 11h 52m
Length of Day
10h 59m
Waning Crescent, 2% of the Moon is Illuminated
Feb 20
Waning Crescent
Feb 21
New
Feb 29
First Quarter
Mar 8
Full
Mar 14
Last Quarter

Hourly Weather History & Observations

Time (EST) Temp. Windchill Dew Point Humidity Pressure Visibility Wind Dir Wind Speed Gust Speed Precip Events Conditions
12:42 AM 28.4 °F 23.3 °F 24.8 °F 86% 29.97 in 10.0 mi NW 4.6 mph - N/A   Overcast
12:51 AM 28.0 °F 22.8 °F 25.0 °F 88% 30.04 in 10.0 mi NNW 4.6 mph - N/A   Overcast
1:10 AM 28.4 °F 23.3 °F 24.8 °F 86% 29.97 in 10.0 mi NNW 4.6 mph - N/A   Mostly Cloudy
1:51 AM 27.0 °F 21.6 °F 24.1 °F 89% 30.08 in 10.0 mi WNW 4.6 mph - N/A   Clear
2:51 AM 25.0 °F 19.3 °F 23.0 °F 92% 30.12 in 10.0 mi NW 4.6 mph - N/A   Partly Cloudy
3:08 AM 24.8 °F 19.1 °F 23.0 °F 93% 30.02 in 10.0 mi NW 4.6 mph - N/A   Mostly Cloudy
3:19 AM 24.8 °F 17.9 °F 21.2 °F 86% 30.02 in 10.0 mi NW 5.8 mph - N/A   Overcast
3:51 AM 25.0 °F 20.7 °F 21.9 °F 88% 30.13 in 10.0 mi NNW 3.5 mph - N/A   Overcast
4:51 AM 24.1 °F 18.2 °F 21.0 °F 88% 30.15 in 10.0 mi NNW 4.6 mph - N/A   Overcast
5:51 AM 21.2 °F 16.4 °F 19.4 °F 93% 30.06 in 10.0 mi North 3.5 mph - N/A   Mostly Cloudy
5:58 AM 19.4 °F - 19.4 °F 100% 30.06 in 7.0 mi Calm Calm - N/A   Scattered Clouds
6:19 AM 21.2 °F - 19.4 °F 93% 30.08 in 9.0 mi Calm Calm - N/A   Mostly Cloudy
6:39 AM 21.2 °F 16.4 °F 17.6 °F 86% 30.09 in 6.0 mi West 3.5 mph - N/A   Overcast
6:46 AM 21.2 °F 13.6 °F 19.4 °F 93% 30.10 in 8.0 mi West 5.8 mph - N/A   Overcast
6:51 AM 21.9 °F 15.7 °F 19.9 °F 92% 30.22 in 10.0 mi West 4.6 mph - N/A   Overcast
7:51 AM 21.9 °F 12.5 °F 19.9 °F 92% 30.29 in 9.0 mi West 8.1 mph - N/A   Overcast
8:51 AM 23.0 °F 17.0 °F 19.9 °F 88% 30.32 in 10.0 mi WNW 4.6 mph - N/A   Mostly Cloudy
9:51 AM 26.1 °F 21.9 °F 21.9 °F 84% 30.33 in 10.0 mi North 3.5 mph - N/A   Overcast
10:51 AM 27.0 °F 21.6 °F 23.0 °F 85% 30.33 in 10.0 mi North 4.6 mph - N/A   Overcast
11:51 AM 30.0 °F - 24.1 °F 79% 30.32 in 10.0 mi Calm Calm - N/A   Mostly Cloudy
12:15 PM 30.2 °F - 24.8 °F 80% 30.23 in 10.0 mi Calm Calm - N/A   Mostly Cloudy
12:46 PM 32.0 °F - 24.8 °F 75% 30.24 in 10.0 mi Calm Calm - N/A   Scattered Clouds
12:51 PM 33.1 °F - 24.1 °F 70% 30.33 in 10.0 mi Calm Calm - N/A   Scattered Clouds
1:51 PM 35.1 °F 32.2 °F 24.1 °F 64% 30.32 in 10.0 mi NNW 3.5 mph - N/A   Partly Cloudy
2:51 PM 36.0 °F - 24.1 °F 62% 30.32 in 10.0 mi Calm Calm - N/A   Clear
3:51 PM 36.0 °F - 24.1 °F 62% 30.30 in 10.0 mi Calm Calm - N/A   Clear
4:51 PM 37.0 °F - 25.0 °F 62% 30.30 in 10.0 mi Calm Calm - N/A   Clear
5:51 PM 35.1 °F - 26.1 °F 70% 30.30 in 10.0 mi Calm Calm - N/A   Clear
6:51 PM 32.0 °F - 26.1 °F 79% 30.31 in 10.0 mi Calm Calm - N/A   Clear
7:51 PM 28.9 °F 25.2 °F 25.0 °F 85% 30.33 in 10.0 mi SE 3.5 mph - N/A   Clear
8:51 PM 28.0 °F 24.2 °F 23.0 °F 81% 30.32 in 10.0 mi East 3.5 mph - N/A   Clear
9:51 PM 28.9 °F 25.2 °F 24.1 °F 82% 30.31 in 10.0 mi WSW 3.5 mph - N/A   Clear
10:51 PM 32.0 °F 24.8 °F 23.0 °F 69% 30.29 in 10.0 mi SSE 8.1 mph - N/A   Clear
11:51 PM 33.1 °F 27.7 °F 21.9 °F 64% 30.27 in 10.0 mi South 5.8 mph - N/A   Clear